Location: Newark
(49.3808°N, 3.1844°E)
Time: 14:59:47
(UTC+00:00)

Vanguard 2 Rocket - Pass Details

Date: 22 November 2019
Orbit: 554 x 3326 km, 32.9° (Epoch: 14 December)

Event Time Altitude Azimuth Distance (km) Brightness Sun altitude
Rises 01:55:03 0° 230° (SW) 2,790 - -49.3°
Reaches altitude 10° 01:58:26 10° 197° (SSW) 2,082 - -48.8°
Maximum altitude 02:00:21 12° 173° (S) 2,077 - -48.6°
Drops below altitude 10° 02:02:29 10° 149° (SSE) 2,429 - -48.3°
Exits shadow 02:06:27 - 125° (SE) 3,602 10.2 -47.7°
Sets 02:07:19 0° 122° (ESE) 3,901 10.4 -47.6°
